Wetterdaten: aktuell Mittwoch, 21.10.2020 18:40
Datum Zeit Temperatur Luftfeuchte Luftdruck Regen Wind Richtung Richtung Sonnenschein ET UV Solar Taupunkt Windchill Windböen Empfang
21.10.2020 18:40 9,9 °C 86 % 1016,2 hPa 0,0 l/m² 0,2 km/h (0 Bft) W-SW 244 ° 0 min 0,000 mm 0,0 UV-I 0 W/m² 7,7 °C 9,9 °C 3,2 km/h (1 Bft) 100 %
21.10.2020 18:30 10,2 °C 86 % 1016,2 hPa 0,0 l/m² 0,2 km/h (0 Bft) W-SW 244 ° 0 min 0,000 mm 0,0 UV-I 0 W/m² 8,0 °C 10,2 °C 3,2 km/h (1 Bft) 100 %
21.10.2020 18:21 10,4 °C 86 % 1016,2 hPa 0,0 l/m² 0,1 km/h (0 Bft) W-SW 244 ° 0 min 0,000 mm 0,0 UV-I 0 W/m² 8,2 °C 10,4 °C 3,2 km/h (1 Bft) 100 %
21.10.2020 18:10 10,6 °C 86 % 1016,1 hPa 0,0 l/m² 0,9 km/h (0 Bft) W-SW 244 ° 0 min 0,000 mm 0,0 UV-I 0 W/m² 8,4 °C 10,6 °C 6,4 km/h (2 Bft) 99 %
21.10.2020 18:00 10,8 °C 85 % 1016,1 hPa 0,0 l/m² 1,5 km/h (1 Bft) W-SW 244 ° 0 min 0,025 mm 0,0 UV-I 3 W/m² 8,4 °C 10,8 °C 6,4 km/h (2 Bft) 75 %
21.10.2020 17:50 10,9 °C 84 % 1016,0 hPa 0,0 l/m² 1,2 km/h (1 Bft) S 188 ° 0 min 0,000 mm 0,0 UV-I 13 W/m² 8,3 °C 10,9 °C 8,0 km/h (2 Bft) 100 %
21.10.2020 17:40 11,2 °C 84 % 1016,1 hPa 0,0 l/m² 0,7 km/h (0 Bft) S 169 ° 0 min 0,000 mm 0,0 UV-I 20 W/m² 8,6 °C 11,2 °C 9,7 km/h (2 Bft) 100 %
21.10.2020 17:30 11,3 °C 84 % 1016,1 hPa 0,0 l/m² 0,1 km/h (0 Bft) O-SO 103 ° 0 min 0,000 mm 0,0 UV-I 26 W/m² 8,7 °C 11,3 °C 3,2 km/h (1 Bft) 100 %
21.10.2020 17:20 11,4 °C 84 % 1016,0 hPa 0,0 l/m² 0,2 km/h (0 Bft) O-SO 103 ° 0 min 0,000 mm 0,0 UV-I 42 W/m² 8,8 °C 11,4 °C 3,2 km/h (1 Bft) 100 %
21.10.2020 17:09 11,5 °C 84 % 1016,1 hPa 0,0 l/m² 0,3 km/h (0 Bft) O-SO 103 ° 0 min 0,025 mm 0,0 UV-I 51 W/m² 8,9 °C 11,5 °C 3,2 km/h (1 Bft) 98 %
21.10.2020 17:00 11,6 °C 83 % 1016,1 hPa 0,0 l/m² 0,0 km/h (0 Bft) O-SO 103 ° 0 min 0,000 mm 0,0 UV-I 44 W/m² 8,8 °C 11,6 °C 0,0 km/h (0 Bft) 98 %
21.10.2020 16:50 11,7 °C 83 % 1016,3 hPa 0,0 l/m² 0,0 km/h (0 Bft) O-SO 103 ° 0 min 0,000 mm 0,0 UV-I 45 W/m² 8,9 °C 11,7 °C 1,6 km/h (1 Bft) 97 %
21.10.2020 16:40 11,7 °C 83 % 1016,1 hPa 0,0 l/m² 0,0 km/h (0 Bft) O-SO 103 ° 0 min 0,000 mm 0,0 UV-I 51 W/m² 8,9 °C 11,7 °C 0,0 km/h (0 Bft) 98 %
21.10.2020 16:30 11,7 °C 83 % 1016,1 hPa 0,0 l/m² 0,0 km/h (0 Bft) O-SO 103 ° 0 min 0,000 mm 0,0 UV-I 44 W/m² 8,9 °C 11,7 °C 0,0 km/h (0 Bft) 99 %
21.10.2020 16:20 11,6 °C 83 % 1016,1 hPa 0,0 l/m² 0,0 km/h (0 Bft) O-SO 103 ° 0 min 0,000 mm 0,3 UV-I 53 W/m² 8,8 °C 11,6 °C 1,6 km/h (1 Bft) 100 %
21.10.2020 16:10 11,6 °C 83 % 1016,0 hPa 0,0 l/m² 0,0 km/h (0 Bft) O-SO 103 ° 10 min 0,051 mm 0,6 UV-I 128 W/m² 8,8 °C 11,6 °C 1,6 km/h (1 Bft) 100 %
21.10.2020 16:00 11,5 °C 83 % 1016,2 hPa 0,0 l/m² 0,0 km/h (0 Bft) O-SO 103 ° 0 min 0,000 mm 0,6 UV-I 99 W/m² 8,7 °C 11,5 °C 1,6 km/h (1 Bft) 100 %
21.10.2020 15:50 11,6 °C 82 % 1016,1 hPa 0,0 l/m² 0,3 km/h (0 Bft) O-SO 103 ° 10 min 0,000 mm 0,7 UV-I 103 W/m² 8,6 °C 11,6 °C 6,4 km/h (2 Bft) 100 %
21.10.2020 15:40 11,6 °C 82 % 1016,2 hPa 0,0 l/m² 0,6 km/h (0 Bft) O-SO 103 ° 10 min 0,000 mm 0,6 UV-I 106 W/m² 8,6 °C 11,6 °C 3,2 km/h (1 Bft) 100 %
21.10.2020 15:30 11,6 °C 82 % 1016,2 hPa 0,0 l/m² 0,8 km/h (0 Bft) O-SO 103 ° 10 min 0,000 mm 0,6 UV-I 120 W/m² 8,6 °C 11,6 °C 6,4 km/h (2 Bft) 100 %
21.10.2020 15:20 11,5 °C 82 % 1016,3 hPa 0,0 l/m² 0,4 km/h (0 Bft) O-SO 103 ° 10 min 0,000 mm 0,8 UV-I 162 W/m² 8,5 °C 11,5 °C 6,4 km/h (2 Bft) 100 %
21.10.2020 15:10 11,5 °C 81 % 1016,2 hPa 0,0 l/m² 1,0 km/h (0 Bft) O-SO 103 ° 10 min 0,000 mm 0,9 UV-I 148 W/m² 8,4 °C 11,5 °C 8,0 km/h (2 Bft) 100 %
21.10.2020 15:00 11,6 °C 81 % 1016,3 hPa 0,0 l/m² 1,0 km/h (0 Bft) O-SO 103 ° 10 min 0,102 mm 0,9 UV-I 136 W/m² 8,5 °C 11,6 °C 6,4 km/h (2 Bft) 99 %
21.10.2020 14:50 11,6 °C 81 % 1016,4 hPa 0,0 l/m² 1,9 km/h (1 Bft) O-SO 103 ° 10 min 0,000 mm 0,9 UV-I 160 W/m² 8,5 °C 11,6 °C 9,7 km/h (2 Bft) 97 %
21.10.2020 14:40 11,6 °C 81 % 1016,5 hPa 0,0 l/m² 1,6 km/h (1 Bft) O-SO 116 ° 10 min 0,000 mm 1,1 UV-I 197 W/m² 8,5 °C 11,6 °C 9,7 km/h (2 Bft) 97 %
21.10.2020 14:30 11,4 °C 82 % 1016,6 hPa 0,0 l/m² 0,7 km/h (0 Bft) O-SO 117 ° 10 min 0,000 mm 1,4 UV-I 318 W/m² 8,4 °C 11,4 °C 8,0 km/h (2 Bft) 97 %
21.10.2020 14:20 10,9 °C 84 % 1016,7 hPa 0,0 l/m² 0,6 km/h (0 Bft) O-SO 119 ° 10 min 0,000 mm 1,4 UV-I 244 W/m² 8,3 °C 10,9 °C 6,4 km/h (2 Bft) 100 %
21.10.2020 14:10 10,7 °C 85 % 1016,7 hPa 0,0 l/m² 1,1 km/h (1 Bft) O-SO 119 ° 10 min 0,000 mm 1,1 UV-I 177 W/m² 8,3 °C 10,7 °C 8,0 km/h (2 Bft) 99 %
21.10.2020 14:00 10,3 °C 86 % 1016,9 hPa 0,0 l/m² 0,8 km/h (0 Bft) SO 127 ° 10 min 0,051 mm 1,1 UV-I 181 W/m² 8,1 °C 10,3 °C 6,4 km/h (2 Bft) 100 %
21.10.2020 13:50 9,9 °C 88 % 1016,7 hPa 0,0 l/m² 0,2 km/h (0 Bft) O-SO 106 ° 10 min 0,000 mm 1,2 UV-I 157 W/m² 8,0 °C 9,9 °C 8,0 km/h (2 Bft) 100 %
21.10.2020 13:40 9,6 °C 88 % 1016,9 hPa 0,0 l/m² 0,5 km/h (0 Bft) O 97 ° 0 min 0,000 mm 0,7 UV-I 70 W/m² 7,7 °C 9,6 °C 6,4 km/h (2 Bft) 100 %
21.10.2020 13:30 9,6 °C 88 % 1017,0 hPa 0,0 l/m² 0,9 km/h (0 Bft) O 97 ° 0 min 0,000 mm 0,2 UV-I 51 W/m² 7,7 °C 9,6 °C 6,4 km/h (2 Bft) 100 %
21.10.2020 13:20 9,5 °C 89 % 1017,0 hPa 0,0 l/m² 2,4 km/h (1 Bft) O 97 ° 0 min 0,000 mm 0,7 UV-I 75 W/m² 7,8 °C 9,5 °C 6,4 km/h (2 Bft) 100 %
21.10.2020 13:10 9,4 °C 89 % 1017,0 hPa 0,0 l/m² 3,3 km/h (1 Bft) O-NO 75 ° 0 min 0,050 mm 0,6 UV-I 64 W/m² 7,7 °C 9,4 °C 8,0 km/h (2 Bft) 100 %
21.10.2020 13:00 9,4 °C 89 % 1017,0 hPa 0,0 l/m² 2,5 km/h (1 Bft) O-NO 75 ° 0 min 0,000 mm 0,6 UV-I 69 W/m² 7,7 °C 9,4 °C 9,7 km/h (2 Bft) 99 %
21.10.2020 12:50 9,3 °C 90 % 1017,0 hPa 0,0 l/m² 3,6 km/h (1 Bft) O-NO 75 ° 10 min 0,000 mm 0,9 UV-I 119 W/m² 7,7 °C 9,3 °C 11,3 km/h (2 Bft) 100 %
21.10.2020 12:40 9,2 °C 90 % 1017,0 hPa 0,0 l/m² 4,3 km/h (1 Bft) O-NO 76 ° 10 min 0,000 mm 0,8 UV-I 109 W/m² 7,6 °C 9,2 °C 8,0 km/h (2 Bft) 100 %
21.10.2020 12:30 9,2 °C 90 % 1016,9 hPa 0,0 l/m² 5,5 km/h (1 Bft) O-NO 75 ° 0 min 0,000 mm 0,7 UV-I 84 W/m² 7,6 °C 8,7 °C 9,7 km/h (2 Bft) 100 %
21.10.2020 12:20 9,2 °C 90 % 1016,9 hPa 0,0 l/m² 3,5 km/h (1 Bft) O-NO 76 ° 0 min 0,000 mm 0,6 UV-I 71 W/m² 7,6 °C 9,2 °C 9,7 km/h (2 Bft) 98 %
21.10.2020 12:10 9,1 °C 91 % 1017,1 hPa 0,0 l/m² 2,7 km/h (1 Bft) O-NO 76 ° 0 min 0,000 mm 0,7 UV-I 80 W/m² 7,7 °C 9,1 °C 8,0 km/h (2 Bft) 98 %
21.10.2020 12:00 9,1 °C 91 % 1017,0 hPa 0,0 l/m² 2,4 km/h (1 Bft) O-NO 76 ° 0 min 0,051 mm 0,6 UV-I 74 W/m² 7,7 °C 9,1 °C 8,0 km/h (2 Bft) 96 %
21.10.2020 11:50 9,0 °C 91 % 1016,9 hPa 0,0 l/m² 0,8 km/h (0 Bft) O-NO 76 ° 10 min 0,000 mm 0,7 UV-I 102 W/m² 7,6 °C 9,0 °C 4,8 km/h (1 Bft) 98 %
21.10.2020 11:40 8,8 °C 91 % 1016,8 hPa 0,0 l/m² 3,2 km/h (1 Bft) O-NO 76 ° 0 min 0,000 mm 0,7 UV-I 88 W/m² 7,4 °C 8,8 °C 8,0 km/h (2 Bft) 97 %
21.10.2020 11:30 8,7 °C 91 % 1016,8 hPa 0,0 l/m² 2,6 km/h (1 Bft) O-NO 76 ° 0 min 0,000 mm 0,6 UV-I 89 W/m² 7,3 °C 8,7 °C 8,0 km/h (2 Bft) 98 %
21.10.2020 11:20 8,7 °C 92 % 1016,9 hPa 0,0 l/m² 1,2 km/h (1 Bft) O-NO 76 ° 0 min 0,000 mm 0,6 UV-I 88 W/m² 7,5 °C 8,7 °C 4,8 km/h (1 Bft) 98 %
21.10.2020 11:10 8,6 °C 92 % 1016,7 hPa 0,0 l/m² 0,6 km/h (0 Bft) O-NO 76 ° 0 min 0,000 mm 0,5 UV-I 71 W/m² 7,4 °C 8,6 °C 3,2 km/h (1 Bft) 100 %
21.10.2020 11:00 8,4 °C 92 % 1016,7 hPa 0,0 l/m² 0,7 km/h (0 Bft) O-NO 76 ° 0 min 0,026 mm 0,4 UV-I 60 W/m² 7,2 °C 8,4 °C 4,8 km/h (1 Bft) 100 %
21.10.2020 10:50 8,4 °C 92 % 1016,7 hPa 0,0 l/m² 1,8 km/h (1 Bft) O-NO 76 ° 0 min 0,000 mm 0,3 UV-I 57 W/m² 7,2 °C 8,4 °C 8,0 km/h (2 Bft) 100 %
21.10.2020 10:40 8,4 °C 92 % 1016,6 hPa 0,0 l/m² 1,0 km/h (0 Bft) O-NO 76 ° 0 min 0,000 mm 0,0 UV-I 41 W/m² 7,2 °C 8,4 °C 4,8 km/h (1 Bft) 100 %
21.10.2020 10:30 8,4 °C 92 % 1016,7 hPa 0,0 l/m² 0,5 km/h (0 Bft) O-NO 76 ° 0 min 0,000 mm 0,0 UV-I 40 W/m² 7,2 °C 8,4 °C 4,8 km/h (1 Bft) 99 %
21.10.2020 10:20 8,3 °C 92 % 1016,7 hPa 0,0 l/m² 0,3 km/h (0 Bft) O-NO 76 ° 0 min 0,000 mm 0,0 UV-I 37 W/m² 7,1 °C 8,3 °C 3,2 km/h (1 Bft) 100 %
21.10.2020 10:10 8,3 °C 93 % 1016,6 hPa 0,0 l/m² 0,2 km/h (0 Bft) O-NO 76 ° 0 min 0,025 mm 0,0 UV-I 46 W/m² 7,2 °C 8,3 °C 3,2 km/h (1 Bft) 100 %
21.10.2020 10:00 8,2 °C 93 % 1016,6 hPa 0,0 l/m² 0,3 km/h (0 Bft) O-NO 76 ° 0 min 0,000 mm 0,0 UV-I 59 W/m² 7,1 °C 8,2 °C 3,2 km/h (1 Bft) 100 %
21.10.2020 09:50 8,2 °C 93 % 1016,5 hPa 0,0 l/m² 0,4 km/h (0 Bft) O-NO 76 ° 0 min 0,000 mm 0,0 UV-I 27 W/m² 7,1 °C 8,2 °C 3,2 km/h (1 Bft) 100 %
21.10.2020 09:40 8,2 °C 93 % 1016,5 hPa 0,0 l/m² 0,5 km/h (0 Bft) O-NO 76 ° 0 min 0,000 mm 0,0 UV-I 19 W/m² 7,1 °C 8,2 °C 3,2 km/h (1 Bft) 100 %
21.10.2020 09:30 8,1 °C 93 % 1016,4 hPa 0,0 l/m² 0,2 km/h (0 Bft) O-NO 76 ° 0 min 0,000 mm 0,0 UV-I 43 W/m² 7,0 °C 8,1 °C 3,2 km/h (1 Bft) 100 %
21.10.2020 09:20 8,0 °C 92 % 1016,3 hPa 0,0 l/m² 0,1 km/h (0 Bft) O-NO 76 ° 0 min 0,000 mm 0,0 UV-I 44 W/m² 6,8 °C 8,0 °C 1,6 km/h (1 Bft) 100 %
21.10.2020 09:10 8,0 °C 92 % 1016,3 hPa 0,0 l/m² 0,2 km/h (0 Bft) O-NO 76 ° 0 min 0,000 mm 0,0 UV-I 29 W/m² 6,8 °C 8,0 °C 3,2 km/h (1 Bft) 100 %
21.10.2020 09:00 8,0 °C 92 % 1016,1 hPa 0,0 l/m² 0,1 km/h (0 Bft) O-NO 76 ° 0 min 0,000 mm 0,0 UV-I 26 W/m² 6,8 °C 8,0 °C 1,6 km/h (1 Bft) 100 %
21.10.2020 08:50 7,9 °C 92 % 1015,9 hPa 0,0 l/m² 0,2 km/h (0 Bft) O-NO 76 ° 0 min 0,000 mm 0,0 UV-I 23 W/m² 6,7 °C 7,9 °C 3,2 km/h (1 Bft) 100 %
21.10.2020 08:40 7,9 °C 92 % 1016,0 hPa 0,0 l/m² 0,1 km/h (0 Bft) O-NO 76 ° 0 min 0,000 mm 0,0 UV-I 23 W/m² 6,7 °C 7,9 °C 1,6 km/h (1 Bft) 100 %
21.10.2020 08:30 7,9 °C 92 % 1015,9 hPa 0,0 l/m² 0,2 km/h (0 Bft) O-NO 76 ° 0 min 0,000 mm 0,0 UV-I 19 W/m² 6,7 °C 7,9 °C 3,2 km/h (1 Bft) 100 %
21.10.2020 08:20 7,8 °C 92 % 1015,9 hPa 0,0 l/m² 0,2 km/h (0 Bft) O-NO 76 ° 0 min 0,000 mm 0,0 UV-I 15 W/m² 6,6 °C 7,8 °C 3,2 km/h (1 Bft) 100 %
21.10.2020 08:10 7,8 °C 92 % 1015,8 hPa 0,0 l/m² 0,1 km/h (0 Bft) O-NO 76 ° 0 min 0,000 mm 0,0 UV-I 9 W/m² 6,6 °C 7,8 °C 3,2 km/h (1 Bft) 100 %
21.10.2020 08:00 7,9 °C 91 % 1015,7 hPa 0,0 l/m² 0,0 km/h (0 Bft) O-NO 76 ° 0 min 0,000 mm 0,0 UV-I 6 W/m² 6,5 °C 7,9 °C 1,6 km/h (1 Bft) 100 %
21.10.2020 07:50 7,9 °C 91 % 1015,7 hPa 0,0 l/m² 0,0 km/h (0 Bft) O-NO 76 ° 0 min 0,000 mm 0,0 UV-I 1 W/m² 6,5 °C 7,9 °C 1,6 km/h (1 Bft) 100 %
21.10.2020 07:40 7,9 °C 91 % 1015,7 hPa 0,0 l/m² 0,0 km/h (0 Bft) O-NO 76 ° 0 min 0,000 mm 0,0 UV-I 0 W/m² 6,5 °C 7,9 °C 0,0 km/h (0 Bft) 98 %
21.10.2020 07:30 7,9 °C 91 % 1015,6 hPa 0,0 l/m² 0,0 km/h (0 Bft) O-NO 76 ° 0 min 0,000 mm 0,0 UV-I 0 W/m² 6,5 °C 7,9 °C 1,6 km/h (1 Bft) 98 %
21.10.2020 07:20 8,0 °C 91 % 1015,6 hPa 0,0 l/m² 0,0 km/h (0 Bft) O-NO 76 ° 0 min 0,000 mm 0,0 UV-I 0 W/m² 6,6 °C 8,0 °C 0,0 km/h (0 Bft) 97 %
_ Min-Zeit 00:50 14:40 06:50 - 19:10 - - - - - - 00:50 00:50 23:30 18:00
Minimum _ 6,2 °C 81 % 1015,5 hPa - 0,0 km/h (0 Bft) - - - - - - 4,5 °C 6,2 °C 0,0 km/h (0 Bft) 75 %
_ Max-Zeit 16:30 09:30 19:30 19:00 12:30 - - 11:50 15:00 14:20 14:30 16:30 16:30 12:50 19:00
Maximum _ 11,7 °C 93 % 1018,1 hPa 0,0 l/m² 5,5 km/h
O-NO (1 Bft)
- - 10 min 0,102 mm 1,4 UV-I 318 W/m² 8,9 °C 11,7 °C 11,3 km/h
O-NO (2 Bft)
100 %
Durchschnitt _ 9,0 °C 88 % 1016,9 hPa #0,0 l/m² 0,5 km/h (0 Bft) O-NO - #2:50 h #0,406 mm 0,7 UV-I 42 W/m² 7,2 °C 9,0 °C 3,4 km/h (1 Bft) 99 %